Regional Weather Roundup
Issued by NWS

Home | Current Version | Previous Version | Graphics & Text | Print | Product List | Glossary On
Versions: 1 2 3 4 5 6 7 8 9 10 11 12 13 14 15 16 17 18 19 20 21 22 23 24 25 26 27 28 29 30 31 32 33 34 35 36 37 38 39 40 41 42 43 44 45 46 47 48 49 50
000
ASUS45 KBOU 190507
RWRCO

WEATHER ROUNDUP FOR COLORADO
NATIONAL WEATHER SERVICE DENVER/BOULDER CO
1000 PM MST THU DEC 18 2014

NOTE: "FAIR" INDICATES FEW OR NO CLOUDS BELOW 12000 FEET WITH NO
SIGNIFICANT WEATHER AND/OR OBSTRUCTIONS TO VISIBILITY.

COZ001>005-013-030-031-190600-
...NORTHWEST COLORADO...

CITY           SKY/WX    TMP DP  RH WIND       PRES   REMARKS
CRAIG          HAZE      21  16  81 S5        30.20R VSB 1/4 WCI  15
HAYDEN         CLOUDY    16  12  86 NW3       30.17R
MEEKER         CLOUDY    21  18  88 NE3       30.19R
MOUNT WERNER   NOT AVBL
STEAMBOAT SPGS CLOUDY    17  17  96 CALM      30.17R
WALDEN         CLEAR      3  -2  78 SE7       30.11F WCI  -9
$$

COZ006>008-011-190600-
...WEST CENTRAL VALLEYS...

CITY           SKY/WX    TMP DP  RH WIND       PRES   REMARKS
GRAND JUNCTION CLOUDY    31  28  89 CALM      30.19R
MONTROSE       CLOUDY    33  31  92 CALM      30.21R
EAGLE          FLURRIES  27  27 100 CALM      30.19R
RIFLE          CLOUDY    32  30  92 SW3       30.19R
DELTA          CLOUDY    34  31  88 CALM      30.20R
NUCLA          NOT AVBL
$$

COZ017>023-064>068-190600-
...SOUTHWEST COLORADO...

CITY           SKY/WX    TMP DP  RH WIND       PRES   REMARKS
DURANGO        MOCLDY    28  25  88 CALM      30.14S
CORTEZ         CLEAR     27  24  89 E7        30.18R WCI  19
PAGOSA SPRINGS NOT AVBL
TELLURIDE      NOT AVBL
WOLF CREEK PAS LGT SNOW   9   7  92 MISG      30.10R
$$

COZ009-010-012-014-032>034-037-058>063-190600-
...CENTRAL COLORADO...

CITY           SKY/WX    TMP DP  RH WIND       PRES   REMARKS
ASPEN          LGT SNOW  25  24  96 CALM      30.13S FOG
BUENA VISTA    PTCLDY    23  14  68 W6        30.11R WCI  16
COPPER MTN     CLOUDY    14   9  79 W14G22    30.08R WCI  -1
BERTHOUD PASS  CLOUDY     7   1  78 MISG      30.06R
COTTONWOOD PAS PTCLDY    25  12  58 W10G21    30.08S WCI  15
GUNNISON       MOCLDY    14   9  79 CALM      30.17S
KREMMLING      LGT SNOW  14  12  92 CALM      30.18R
LEADVILLE      MOCLDY     6   3  87 NE6       30.09R WCI  -4
SALIDA         PTCLDY    25  18  73 CALM      30.19R
SUNLIGHT       FOG      N/A N/A N/A CALM      30.13S VSB 1/2
WILKERSON PASS MOCLDY    14   9  79 NW6       30.09S WCI   5
$$

COZ069>075-190600-
...SAN LUIS VALLEY/SANGRE DE CRISTO MOUNTAINS...

CITY           SKY/WX    TMP DP  RH WIND       PRES   REMARKS
ALAMOSA        CLOUDY    16  14  92 E5        30.12S WCI   9
LA VETA PASS   PTCLDY    16  12  86 MISG      30.07S
SAGUACHE       PTCLDY    23  19  86 N3        30.13R
$$

COZ035-036-038>040-190600-
...NORTHERN COLORADO FRONT RANGE...

CITY           SKY/WX    TMP DP  RH WIND       PRES   REMARKS
DENVER INTL AP MOCLDY    29  26  89 SW7       30.07S WCI  22
DMNS CITY PARK   N/A     31  27  84 S5        30.08R WCI  26
AURORA         MOCLDY    30  29  99 SW3       30.08S
FRONT RANGE AP CLEAR     32  30  93 SW8       30.08R WCI  25
ERIE MUNI ARPT   N/A     22  20  94 S3        30.09S
BOULDER MUN AP CLEAR     30  23  74 CALM      30.08R
CENTENNIAL     MOCLDY    28  26  92 S3        30.07S
BROOMFIELD     MOCLDY    32  25  74 SW3       30.08R
FORT COLLINS   CLEAR     27  21  80 N6        30.10S WCI  20
LONGMONT       CLEAR     28  24  85 NW3       30.11S
$$

COZ041-046-047-076>085-087-088-190600-
...PIKES PEAK/PALMER DIVIDE AND SOUTHERN FOOTHILLS...

CITY           SKY/WX    TMP DP  RH WIND       PRES   REMARKS
COLO. SPRINGS  FLURRIES  31  20  63 E6        30.11S WCI  25
A. F. ACADEMY  MOCLDY    29  21  71 SE3       30.10R
ELLICOTT       NOT AVBL
FALCON         CLOUDY    28  23  81 W3        30.11R
FORT CARSON    CLOUDY    30  24  78 CALM      30.10R
LIMON          PTCLDY    17  15  92 NW5       30.11R WCI  10
MONUMENT HILL  CLOUDY    28  25  86 S6        30.07S WCI  22
TRINIDAD       CLOUDY    33  27  78 NW8       30.07R WCI  26
$$

COZ042>045-048>051-090-091-190600-
...NORTHEAST COLORADO...

CITY           SKY/WX    TMP DP  RH WIND       PRES   REMARKS
GREELEY ARPT   PTCLDY    21  12  68 NW6       30.08S WCI  14
AKRON          MOCLDY    28  19  69 S9        30.09S WCI  19
BURLINGTON     CLEAR     23  19  85 SW7       30.11R WCI  15
WRAY           NOT AVBL
STERLING       MOCLDY    21  19  93 W5        30.11S WCI  15
HOLYOKE        NOT AVBL
FORT MORGAN    NOT AVBL
$$

COZ086-089-092>099-190600-
...SOUTHEAST COLORADO...

CITY           SKY/WX    TMP DP  RH WIND       PRES   REMARKS
PUEBLO         MOCLDY    26  21  81 N7        30.11S WCI  18
LA JUNTA       MOCLDY    30  27  88 NE3       30.12R
LAMAR          CLEAR     27  25  92 CALM      30.12R FOG
SPRINGFIELD      N/A     25  24  96 CALM      30.10F
$$



USA.gov is the U.S. government's official web portal to all federal, state and local government web resources and services.